Weather History for Harlan, IA

Change the Weather History Date:

Wednesday, February 13, 2013

  Actual Average Record
Temperature  
Mean Temperature 35 °F -  
Max Temperature 51 °F 35 °F 59 °F (1954)
Min Temperature 19 °F 15 °F -14 °F (1965)
Degree Days  
Heating Degree Days 30    
Moisture  
Dew Point 24 °F    
Average Humidity 68    
Maximum Humidity 100    
Minimum Humidity 30    
Precipitation  
Precipitation 0.00 in - - ()
Sea Level Pressure  
Sea Level Pressure 29.82 in    
Wind  
Wind Speed 5 mph (WSW)    
Max Wind Speed 18 mph    
Max Gust Speed 28 mph    
Visibility 10 miles    
Events      
Averages and records for this station are not official NWS values.
T = Trace of Precipitation, MM = Missing Value Source: NWS Daily Summary

Daily Weather History Graph

Daily Weather History Graph

Search for Another Location

Airport:

Trip Planner

Search our weather history database for the weather conditions in past years. The results will help you decide how hot, cold, wet, or windy it might be!

Date:

Astronomy

Feb. 13, 2013 Rise Set
Actual Time 7:18 AM CST 5:52 PM CST
Civil Twilight 6:50 AM CST 6:21 PM CST
Nautical Twilight 6:17 AM CST 6:53 PM CST
Astronomical Twilight 5:45 AM CST 7:26 PM CST
Moon 8:45 AM CST (2/13) 10:00 PM CST (2/13)
Length of Visible Light 11h 31m
Length of Day
10h 33m
Waxing Crescent, 14% of the Moon is Illuminated
Feb 13
Waxing Crescent
Feb 17
First Quarter
Feb 25
Full
Mar 4
Last Quarter
Mar 11
New

Hourly Weather History & Observations

Time (CST) Temp. Windchill Dew Point Humidity Pressure Visibility Wind Dir Wind Speed Gust Speed Precip Events Conditions
12:15 AM 23.0 °F - 19.4 °F 86% 29.93 in 10.0 mi Calm Calm - N/A   Clear
12:35 AM 24.8 °F - 21.2 °F 86% 29.92 in 10.0 mi Calm Calm - N/A   Clear
12:55 AM 23.0 °F - 21.2 °F 93% 29.92 in 10.0 mi Calm Calm - N/A   Clear
1:15 AM 23.0 °F - 21.2 °F 93% 29.92 in 10.0 mi Calm Calm - N/A   Clear
1:35 AM 23.0 °F - 21.2 °F 93% 29.92 in 10.0 mi Calm Calm - N/A   Clear
1:55 AM 21.2 °F - 21.2 °F 100% 29.92 in 10.0 mi Calm Calm - N/A   Clear
2:15 AM 24.8 °F - 21.2 °F 86% 29.92 in 10.0 mi Calm Calm - N/A   Clear
2:35 AM 23.0 °F - 19.4 °F 86% 29.91 in 10.0 mi Calm Calm - N/A   Clear
2:55 AM 24.8 °F - 21.2 °F 86% 29.90 in 10.0 mi Calm Calm - N/A   Clear
3:15 AM 23.0 °F - 19.4 °F 86% 29.90 in 10.0 mi Calm Calm - N/A   Clear
3:35 AM 24.8 °F - 21.2 °F 86% 29.90 in 10.0 mi Calm Calm - N/A   Clear
3:55 AM 23.0 °F - 21.2 °F 93% 29.89 in 10.0 mi Calm Calm - N/A   Clear
4:15 AM 21.2 °F - 19.4 °F 93% 29.89 in 10.0 mi Calm Calm - N/A   Clear
4:35 AM 23.0 °F 18.4 °F 21.2 °F 93% 29.89 in 10.0 mi SW 3.5 mph - N/A   Clear
4:55 AM 23.0 °F - 21.2 °F 93% 29.88 in 10.0 mi Calm Calm - N/A   Clear
5:15 AM 23.0 °F - 21.2 °F 93% 29.87 in 10.0 mi Calm Calm - N/A   Clear
5:35 AM 21.2 °F - 19.4 °F 93% 29.87 in 10.0 mi Calm Calm - N/A   Clear
5:55 AM 19.4 °F - 19.4 °F 100% 29.87 in 10.0 mi Calm Calm - N/A   Clear
6:15 AM 21.2 °F - 19.4 °F 93% 29.87 in 10.0 mi Calm Calm - N/A   Clear
6:35 AM 21.2 °F 14.9 °F 21.2 °F 100% 29.87 in 10.0 mi West 4.6 mph - N/A   Clear
6:55 AM 21.2 °F - 19.4 °F 93% 29.87 in 10.0 mi Calm Calm - N/A   Clear
7:15 AM 21.2 °F - 21.2 °F 100% 29.87 in 10.0 mi Calm Calm - N/A   Clear
7:35 AM 24.8 °F - 21.2 °F 86% 29.87 in 10.0 mi Calm Calm - N/A   Clear
7:55 AM 26.6 °F 21.2 °F 23.0 °F 86% 29.88 in 10.0 mi SW 4.6 mph - N/A   Clear
8:15 AM 26.6 °F - 24.8 °F 93% 29.87 in 10.0 mi Calm Calm - N/A   Clear
8:35 AM 28.4 °F 24.6 °F 24.8 °F 86% 29.87 in 10.0 mi WSW 3.5 mph - N/A   Clear
8:55 AM 30.2 °F 24.3 °F 26.6 °F 86% 29.88 in 10.0 mi West 5.8 mph - N/A   Clear
9:15 AM 32.0 °F 24.8 °F 28.4 °F 87% 29.88 in 10.0 mi West 8.1 mph - N/A   Clear
9:35 AM 33.8 °F 27.7 °F 28.4 °F 81% 29.87 in 10.0 mi West 6.9 mph - N/A   Clear
9:55 AM 33.8 °F 27.7 °F 28.4 °F 81% 29.87 in 10.0 mi WSW 6.9 mph - N/A   Clear
10:15 AM 35.6 °F 30.7 °F 28.4 °F 75% 29.87 in 10.0 mi WSW 5.8 mph - N/A   Clear
10:35 AM 37.4 °F 31.4 °F 28.4 °F 70% 29.87 in 10.0 mi WSW 8.1 mph - N/A   Clear
10:55 AM 39.2 °F 33.0 °F 28.4 °F 65% 29.86 in 10.0 mi SW 9.2 mph - N/A   Clear
11:15 AM 39.2 °F 33.6 °F 28.4 °F 65% 29.86 in 10.0 mi SW 8.1 mph - N/A   Clear
11:35 AM 42.8 °F 37.5 °F 26.6 °F 53% 29.85 in 10.0 mi SW 9.2 mph - N/A   Clear
11:55 AM 42.8 °F 37.0 °F 26.6 °F 53% 29.84 in 10.0 mi SW 10.4 mph - N/A   Clear
12:15 PM 44.6 °F 38.8 °F 26.6 °F 49% 29.83 in 10.0 mi WSW 11.5 mph - N/A   Clear
12:35 PM 46.4 °F 41.9 °F 26.6 °F 46% 29.82 in 10.0 mi SW 9.2 mph - N/A   Clear
12:55 PM 46.4 °F 40.7 °F 24.8 °F 43% 29.81 in 10.0 mi WSW 12.7 mph - N/A   Clear
1:15 PM 46.4 °F 40.4 °F 21.2 °F 37% 29.80 in 10.0 mi WSW 13.8 mph 20.7 mph N/A   Clear
1:35 PM 48.2 °F - 21.2 °F 34% 29.80 in 10.0 mi WSW 13.8 mph 20.7 mph N/A   Clear
1:55 PM 48.2 °F - 21.2 °F 34% 29.79 in 10.0 mi WSW 16.1 mph 20.7 mph N/A   Clear
2:15 PM 48.2 °F - 23.0 °F 37% 29.78 in 10.0 mi WSW 18.4 mph - N/A   Clear
2:35 PM 48.2 °F - 21.2 °F 34% 29.77 in 10.0 mi SW 18.4 mph - N/A   Clear
2:55 PM 48.2 °F - 21.2 °F 34% 29.77 in 10.0 mi SW 17.3 mph - N/A   Clear
3:15 PM 50.0 °F - 21.2 °F 32% 29.76 in 10.0 mi WSW 16.1 mph 27.6 mph N/A   Clear
3:35 PM 50.0 °F - 23.0 °F 35% 29.76 in 10.0 mi WSW 15.0 mph 19.6 mph N/A   Clear
3:55 PM 50.0 °F - 23.0 °F 35% 29.76 in 10.0 mi SW 13.8 mph 21.9 mph N/A   Scattered Clouds
4:15 PM 51.8 °F - 21.2 °F 30% 29.75 in 10.0 mi WSW 17.3 mph - N/A   Clear
4:35 PM 50.0 °F - 23.0 °F 35% 29.75 in 10.0 mi WSW 13.8 mph 19.6 mph N/A   Scattered Clouds
4:55 PM 50.0 °F - 23.0 °F 35% 29.74 in 10.0 mi WSW 15.0 mph - N/A   Mostly Cloudy
5:15 PM 48.2 °F - 23.0 °F 37% 29.75 in 10.0 mi SW 11.5 mph - N/A   Scattered Clouds
5:35 PM 46.4 °F 41.9 °F 24.8 °F 43% 29.75 in 10.0 mi SW 9.2 mph - N/A   Clear
5:55 PM 44.6 °F 39.2 °F 24.8 °F 46% 29.74 in 10.0 mi SW 10.4 mph - N/A   Scattered Clouds
6:15 PM 44.6 °F 39.7 °F 24.8 °F 46% 29.74 in 10.0 mi SW 9.2 mph - N/A   Overcast
6:35 PM 44.6 °F 40.7 °F 26.6 °F 49% 29.74 in 10.0 mi SSW 6.9 mph - N/A   Overcast
6:55 PM 42.8 °F 37.5 °F 26.6 °F 53% 29.74 in 10.0 mi WSW 9.2 mph - N/A   Overcast
7:15 PM 42.8 °F 38.0 °F 26.6 °F 53% 29.75 in 10.0 mi West 8.1 mph - N/A   Overcast
7:35 PM 44.6 °F 38.8 °F 24.8 °F 46% 29.75 in 10.0 mi West 11.5 mph - N/A   Overcast
7:55 PM 42.8 °F 38.0 °F 26.6 °F 53% 29.75 in 10.0 mi WSW 8.1 mph - N/A   Mostly Cloudy
8:15 PM 37.4 °F 32.1 °F 26.6 °F 65% 29.76 in 10.0 mi WSW 6.9 mph - N/A   Scattered Clouds
8:35 PM 39.2 °F 35.0 °F 26.6 °F 61% 29.76 in 10.0 mi WSW 5.8 mph - N/A   Mostly Cloudy
8:55 PM 37.4 °F 32.8 °F 26.6 °F 65% 29.75 in 10.0 mi WSW 5.8 mph - N/A   Mostly Cloudy
9:15 PM 39.2 °F 33.6 °F 24.8 °F 56% 29.75 in 10.0 mi WSW 8.1 mph - N/A   Scattered Clouds
9:35 PM 35.6 °F 29.9 °F 26.6 °F 70% 29.75 in 10.0 mi WSW 6.9 mph - N/A   Clear
9:55 PM 35.6 °F 28.0 °F 26.6 °F 70% 29.76 in 10.0 mi West 10.4 mph - N/A   Clear
10:15 PM 37.4 °F 28.9 °F 26.6 °F 65% 29.76 in 10.0 mi West 13.8 mph - N/A   Clear
10:35 PM 37.4 °F 29.3 °F 26.6 °F 65% 29.76 in 10.0 mi West 12.7 mph - N/A   Clear
10:55 PM 37.4 °F 29.3 °F 26.6 °F 65% 29.77 in 10.0 mi West 12.7 mph - N/A   Clear
11:15 PM 37.4 °F 28.9 °F 28.4 °F 70% 29.77 in 10.0 mi West 13.8 mph - N/A   Scattered Clouds
11:35 PM 35.6 °F 28.0 °F 26.6 °F 70% 29.78 in 10.0 mi West 10.4 mph - N/A   Scattered Clouds
11:55 PM 35.6 °F 27.1 °F 28.4 °F 75% 29.79 in 10.0 mi West 12.7 mph - N/A   Clear